Tracking 25711 objects as of 23-May-2022
HD Live streaming from Space Station
objects crossing your sky now

COSMOS 1275 DEB

Track COSMOS 1275 DEB now!
10-day predictions


NORAD ID: 27734
Int'l Code: 1981-053MV
Perigee: 842.3 km
Apogee: 999.2 km
Inclination: 83.1 °
Period: 103.3 minutes
Semi major axis: 7291 km
RCS: 0.0056 m2 (small)
Launch date: June 4, 1981
Source: Commonwealth of Independent States (former USSR) (CIS)
Launch site: PLESETSK MISSILE AND SPACE COMPLEX (PKMTR)

Note: This is SATELLITE DEBRIS
aabbcc
Your satellite tracking list
Your tracking list is empty




NASA's NSSDC Master Catalog

Two Line Element Set (TLE):
1 27734U 81053MP  22142.33470449  .00003807  00000-0  27205-2 0  9991
2 27734  83.1203 107.8391 0107629 344.4373  15.3492 13.94291696348508
Source of the keplerian elements: AFSPC